N3PL Weather Reports


Display with metric or nautical units.
time (UTC)temp
F
wind
direction
speed
MPH
gust
MPH
rain 1hr
in
rain 24hr
in
rain mn
in
humidity
%
barometer
mb
20260510223601 64 272 0.0 0.0 0.00 0.00 0.00 94 1008.9
20260510223002 64 272 0.0 0.0 0.00 0.00 0.00 94 1008.9
20260510222507 63 272 0.0 0.0 0.00 0.00 0.00 94 1008.6
20260510222058 63 272 0.0 0.0 0.00 0.00 0.00 94 1008.6
20260510221603 63 272 0.0 0.0 0.00 0.00 0.00 94 1008.6
20260510221105 63 272 0.0 0.0 0.00 0.00 0.00 93 1008.6
20260510220553 63 272 0.0 0.0 0.00 0.00 0.00 93 1008.6
20260510220100 63 272 0.0 0.0 0.00 0.00 0.00 93 1008.6
20260510215602 63 272 0.0 0.0 0.00 0.00 0.00 93 1008.5
20260510215000 63 272 0.0 0.0 0.00 0.00 0.00 93 1008.5
20260510214505 64 272 0.0 0.0 0.00 0.00 0.00 93 1008.5
20260510214012 64 272 0.0 0.0 0.00 0.00 0.00 93 1008.7
20260510213512 64 272 0.0 0.0 0.00 0.00 0.00 93 1008.7
20260510213103 64 272 0.0 0.0 0.00 0.00 0.00 93 1008.7
20260510212606 64 272 0.0 0.0 0.00 0.00 0.00 93 1008.9
20260510212004 64 272 0.0 0.0 0.00 0.00 0.00 92 1008.9
20260510211506 64 272 0.0 0.0 0.00 0.00 0.00 92 1008.9
20260510211010 64 272 0.0 0.0 0.00 0.00 0.00 92 1008.7
20260510210605 64 272 0.0 0.0 0.00 0.00 0.00 91 1008.7
20260510210106 64 272 0.0 0.0 0.00 0.00 0.00 90 1008.7
20260510205503 64 272 0.0 0.0 0.00 0.00 0.00 90 1008.2
20260510205007 64 272 0.0 0.0 0.00 0.00 0.00 89 1008.2
20260510204601 63 272 0.0 0.0 0.00 0.00 0.00 88 1008.2
20260510204103 64 272 0.0 0.0 0.00 0.00 0.00 88 1008.3
20260510203502 64 272 0.0 0.0 0.00 0.00 0.00 87 1008.3
20260510203055 64 272 0.0 0.0 0.00 0.00 0.00 86 1008.3
20260510202559 65 272 0.0 0.0 0.00 0.00 0.00 86 1008.5
20260510202101 66 272 0.0 0.0 0.00 0.00 0.00 83 1008.5
20260510201604 67 272 0.0 0.0 0.00 0.00 0.00 81 1008.5
20260510201052 69 285 0.0 0.0 0.00 0.00 0.00 78 1007.7
20260510200555 70 285 0.0 0.0 0.00 0.00 0.00 73 1007.7
20260510200057 71 287 0.0 0.0 0.00 0.00 0.00 69 1007.7
20260510195558 71 287 0.0 0.0 0.00 0.00 0.00 67 1007.8
20260510195004 71 287 0.0 0.0 0.00 0.00 0.00 61 1007.8
20260510194507 70 287 0.0 0.0 0.00 0.00 0.00 60 1007.8
20260510194011 70 287 0.0 0.0 0.00 0.00 0.00 63 1008.2
20260510193606 70 287 0.0 0.0 0.00 0.00 0.00 65 1008.2
20260510193004 69 287 0.0 0.0 0.00 0.00 0.00 75 1008.2
20260510192505 69 287 0.0 0.0 0.00 0.00 0.00 74 1008.2
20260510192011 69 287 0.0 0.0 0.00 0.00 0.00 74 1008.2
20260510191605 69 287 0.0 0.0 0.00 0.00 0.00 76 1008.2
20260510191003 69 287 0.0 0.0 0.00 0.00 0.00 76 1008.2
20260510190506 70 287 0.0 0.0 0.00 0.00 0.00 74 1008.2
20260510190024 70 285 0.0 0.0 0.00 0.00 0.00 73 1008.2
20260510185601 70 285 0.0 0.0 0.00 0.00 0.00 70 1008.6
20260510185105 71 285 0.0 0.0 0.00 0.00 0.00 64 1008.6
20260510184504 72 285 0.0 0.0 0.00 0.00 0.00 61 1008.6
20260510184008 73 285 0.0 0.0 0.00 0.00 0.00 53 1008.4
20260510183558 73 285 0.0 0.0 0.00 0.00 0.00 53 1008.4
20260510183101 73 285 0.0 0.0 0.00 0.00 0.00 50 1008.4
20260510182603 74 274 0.0 0.0 0.00 0.00 0.00 49 1008.1
20260510182003 75 264 0.0 0.0 0.00 0.00 0.00 45 1008.1
20260510181600 75 294 0.0 0.0 0.00 0.00 0.00 47 1008.1
20260510181057 75 294 0.0 0.0 0.00 0.00 0.00 45 1008.5
20260510180600 74 289 0.0 0.0 0.00 0.00 0.00 47 1008.5
20260510180116 74 289 0.0 0.0 0.00 0.00 0.00 50 1008.5
20260510175604 74 289 0.0 0.0 0.00 0.00 0.00 49 1008.3
20260510175004 75 289 0.0 0.0 0.00 0.00 0.00 46 1008.3
20260510174508 75 275 0.0 0.0 0.00 0.00 0.00 44 1008.3
20260510174101 76 275 0.0 0.0 0.00 0.00 0.00 43 1008.3
20260510173608 77 275 0.0 0.0 0.00 0.00 0.00 43 1008.3
20260510173002 78 275 0.0 0.0 0.00 0.00 0.00 39 1008.3
20260510172506 78 322 0.0 0.0 0.00 0.00 0.00 40 1008.4
20260510172059 78 322 0.0 0.0 0.00 0.00 0.00 39 1008.4
20260510171621 77 320 0.0 0.0 0.00 0.00 0.00 39 1008.4
20260510171001 78 264 0.0 0.0 0.00 0.00 0.00 39 1008.3
20260510170503 78 257 0.0 0.0 0.00 0.00 0.00 38 1008.3
20260510170104 78 305 0.0 0.0 0.00 0.00 0.00 42 1008.3
20260510165603 78 305 0.0 0.0 0.00 0.00 0.00 43 1008.3
20260510165104 77 280 0.0 0.0 0.00 0.00 0.00 41 1008.3
20260510164500 77 280 0.0 0.0 0.00 0.00 0.00 43 1008.3
20260510164053 77 280 0.0 0.0 0.00 0.00 0.00 43 1008.3
20260510163558 77 311 0.0 0.0 0.00 0.00 0.00 41 1008.3
20260510163101 77 322 0.0 0.0 0.00 0.00 0.00 43 1008.3
20260510162607 77 322 0.0 0.0 0.00 0.00 0.00 43 1008.3
20260510162005 77 319 0.0 0.0 0.00 0.00 0.00 43 1008.3
20260510161510 76 295 0.0 0.0 0.00 0.00 0.00 44 1008.3
20260510161059 76 295 0.0 0.0 0.00 0.00 0.00 43 1008.4
20260510160602 76 295 0.0 0.0 0.00 0.00 0.00 45 1008.4
20260510160118 75 295 0.0 0.0 0.00 0.00 0.00 47 1008.4
20260510155510 74 295 0.0 0.0 0.00 0.00 0.00 46 1008.4
20260510155100 74 284 0.0 0.0 0.00 0.00 0.00 46 1008.4
20260510154624 74 309 0.0 0.0 0.00 0.00 0.00 46 1008.4
20260510154001 73 319 0.0 0.0 0.00 0.00 0.00 48 1008.6
20260510153602 73 304 0.0 0.0 0.00 0.00 0.00 47 1008.6
20260510153008 73 316 0.0 0.0 0.00 0.00 0.00 50 1008.6
20260510152559 72 326 0.0 0.0 0.00 0.00 0.00 50 1008.5
20260510152102 71 274 0.0 0.0 0.00 0.00 0.00 53 1008.5
20260510151504 71 264 0.0 0.0 0.00 0.00 0.00 51 1008.5
20260510151007 72 319 0.0 0.0 0.00 0.00 0.00 52 1008.4
20260510150600 71 301 0.0 0.0 0.00 0.00 0.00 56 1008.4
20260510150128 71 299 0.0 0.0 0.00 0.00 0.00 56 1008.4
20260510145606 70 296 0.0 0.0 0.00 0.00 0.00 56 1008.4
20260510145002 70 296 0.0 0.0 0.00 0.00 0.00 58 1008.4
20260510144612 69 296 0.0 0.0 0.00 0.00 0.00 62 1008.4
20260510144100 68 296 0.0 0.0 0.00 0.00 0.00 63 1008.6
20260510143603 67 296 0.0 0.0 0.00 0.00 0.00 65 1008.6
20260510143001 66 296 0.0 0.0 0.00 0.00 0.00 66 1008.6
20260510142554 65 329 0.0 0.0 0.00 0.00 0.00 70 1008.8
20260510142059 64 329 0.0 0.0 0.00 0.00 0.00 73 1008.8
20260510141600 64 328 0.0 0.0 0.00 0.00 0.00 74 1008.8
20260510141101 63 0 0.0 0.0 0.00 0.00 0.00 77 1008.7
20260510140606 62 0 0.0 0.0 0.00 0.00 0.00 81 1008.7
20260510140056 61 0 0.0 0.0 0.00 0.00 0.00 86 1008.7
20260510135556 60 0 0.0 0.0 0.00 0.00 0.00 88 1008.6
20260510135105 59 0 0.0 0.0 0.00 0.00 0.00 92 1008.6
20260510134553 59 274 0.0 0.0 0.00 0.00 0.00 94 1008.6
20260510134054 58 285 0.0 0.0 0.00 0.00 0.00 95 1008.8
20260510133603 58 285 0.0 0.0 0.00 0.00 0.00 97 1008.8
20260510133105 57 285 0.0 0.0 0.00 0.00 0.00 98 1008.8
20260510132503 57 285 0.0 0.0 0.00 0.00 0.00 98 1008.7
20260510132006 56 285 0.0 0.0 0.00 0.00 0.00 98 1008.7
20260510131510 56 285 0.0 0.0 0.00 0.00 0.00 98 1008.7
20260510131102 55 285 0.0 0.0 0.00 0.00 0.00 98 1008.9
20260510130550 55 285 0.0 0.0 0.00 0.00 0.00 98 1008.9
20260510130053 54 285 0.0 0.0 0.00 0.00 0.00 98 1008.9
20260510125556 54 285 0.0 0.0 0.00 0.00 0.00 98 1008.9
20260510125103 53 285 0.0 0.0 0.00 0.00 0.00 98 1008.9
20260510124606 53 285 0.0 0.0 0.00 0.00 0.00 98 1008.9
20260510124005 53 285 0.0 0.0 0.00 0.00 0.00 98 1008.8
20260510123600 52 285 0.0 0.0 0.00 0.00 0.00 98 1008.8
20260510123107 52 285 0.0 0.0 0.00 0.00 0.00 98 1008.8
20260510122605 52 285 0.0 0.0 0.00 0.00 0.00 98 1008.7
20260510122005 52 285 0.0 0.0 0.00 0.00 0.00 98 1008.7
20260510121558 52 285 0.0 0.0 0.00 0.00 0.00 98 1008.7
20260510121101 51 285 0.0 0.0 0.00 0.00 0.00 98 1008.3
20260510120603 51 285 0.0 0.0 0.00 0.00 0.00 98 1008.3
20260510120104 51 285 0.0 0.0 0.00 0.00 0.00 98 1008.3
20260510115501 51 285 0.0 0.0 0.00 0.00 0.00 98 1008.1
20260510115005 51 285 0.0 0.0 0.00 0.00 0.00 98 1008.1
20260510114508 51 285 0.0 0.0 0.00 0.00 0.00 98 1008.1
20260510114101 50 285 0.0 0.0 0.00 0.00 0.00 98 1007.9
20260510113547 50 285 0.0 0.0 0.00 0.00 0.00 98 1007.9
20260510113034 50 285 0.0 0.0 0.00 0.00 0.00 98 1007.9
20260510112538 50 285 0.0 0.0 0.00 0.00 0.00 98 1008.0
20260510112040 49 285 0.0 0.0 0.00 0.00 0.00 98 1008.0
20260510111549 49 285 0.0 0.0 0.00 0.00 0.00 97 1008.0
20260510111049 49 285 0.0 0.0 0.00 0.00 0.00 97 1007.9
20260510110555 49 285 0.0 0.0 0.00 0.00 0.00 97 1007.9
20260510105504 49 285 0.0 0.0 0.00 0.00 0.00 97 1007.6
20260510105008 49 285 0.0 0.0 0.00 0.00 0.00 97 1007.6
20260510104511 49 285 0.0 0.0 0.00 0.00 0.00 97 1007.6
20260510104104 49 285 0.0 0.0 0.00 0.00 0.00 97 1007.4
20260510103504 49 285 0.0 0.0 0.00 0.00 0.00 97 1007.4
20260510103004 48 285 0.0 0.0 0.00 0.00 0.00 97 1007.4
20260510102509 48 285 0.0 0.0 0.00 0.00 0.00 97 1007.1
20260510102101 48 285 0.0 0.0 0.00 0.00 0.00 97 1007.1
20260510101604 48 285 0.0 0.0 0.00 0.00 0.00 97 1007.1
20260510101005 48 285 0.0 0.0 0.00 0.00 0.00 97 1007.3
20260510100556 48 285 0.0 0.0 0.00 0.00 0.00 97 1007.3
20260510100059 48 285 0.0 0.0 0.00 0.00 0.00 97 1007.3
20260510095602 48 285 0.0 0.0 0.00 0.00 0.00 97 1006.9
20260510095052 48 285 0.0 0.0 0.00 0.00 0.00 97 1006.9
20260510094609 48 285 0.0 0.0 0.00 0.00 0.00 97 1006.9
20260510094057 48 285 0.0 0.0 0.00 0.00 0.00 97 1006.9
20260510093601 48 285 0.0 0.0 0.00 0.00 0.00 97 1006.9
20260510093105 48 285 0.0 0.0 0.00 0.00 0.00 97 1006.9
20260510092503 48 285 0.0 0.0 0.00 0.00 0.00 97 1007.0
20260510092006 48 285 0.0 0.0 0.00 0.00 0.00 97 1007.0
20260510091509 48 285 0.0 0.0 0.00 0.00 0.00 97 1007.0
20260510091012 48 285 0.0 0.0 0.00 0.00 0.00 97 1006.8
20260510090515 48 285 0.0 0.0 0.00 0.00 0.00 96 1006.8
20260510090005 48 285 0.0 0.0 0.00 0.00 0.00 96 1006.8
20260510085556 48 285 0.0 0.0 0.00 0.00 0.00 96 1006.9
20260510085103 48 52 0.0 0.0 0.00 0.00 0.00 96 1006.9
20260510084618 48 285 0.0 0.0 0.00 0.00 0.00 96 1006.9
20260510084056 48 37 0.0 0.0 0.00 0.00 0.00 97 1006.8
20260510083602 47 288 0.0 0.0 0.00 0.00 0.00 96 1006.8
20260510083118 47 291 0.0 0.0 0.00 0.00 0.00 96 1006.8
20260510082501 46 294 0.0 0.0 0.00 0.00 0.00 95 1006.4
20260510082004 47 326 0.0 0.0 0.00 0.00 0.00 95 1006.4
20260510081514 47 326 0.0 0.0 0.00 0.00 0.00 96 1006.4
20260510081010 47 326 0.0 0.0 0.00 0.00 0.00 96 1006.4
20260510080604 47 326 0.0 0.0 0.00 0.00 0.00 95 1006.4
20260510080109 47 326 0.0 0.0 0.00 0.00 0.00 95 1006.4
20260510075506 46 326 0.0 0.0 0.00 0.00 0.00 95 1006.3
20260510075100 46 326 0.0 0.0 0.00 0.00 0.00 95 1006.3
20260510074604 47 326 0.0 0.0 0.00 0.00 0.00 95 1006.3
20260510074105 47 326 0.0 0.0 0.00 0.00 0.00 94 1006.3
20260510073503 47 326 0.0 0.0 0.00 0.00 0.00 95 1006.3
20260510073005 47 326 0.0 0.0 0.00 0.00 0.00 95 1006.3
20260510072559 47 326 0.0 0.0 0.00 0.00 0.00 95 1006.1
20260510072102 47 326 0.0 0.0 0.00 0.00 0.00 95 1006.1
20260510071604 47 326 0.0 0.0 0.00 0.00 0.00 95 1006.1
20260510071001 47 326 0.0 0.0 0.00 0.00 0.00 95 1005.8
20260510070555 47 326 0.0 0.0 0.00 0.00 0.00 94 1005.8
20260510070103 47 326 0.0 0.0 0.00 0.00 0.00 94 1005.8
20260510065607 47 326 0.0 0.0 0.00 0.00 0.00 94 1005.7
20260510065054 47 326 0.0 0.0 0.00 0.00 0.00 94 1005.7
20260510064600 47 326 0.0 0.0 0.00 0.00 0.00 94 1005.7
20260510064059 47 326 0.0 0.0 0.00 0.00 0.00 94 1005.8
20260510063602 47 326 0.0 0.0 0.00 0.00 0.00 94 1005.8
20260510063106 47 326 0.0 0.0 0.00 0.00 0.00 94 1005.8
20260510062505 47 326 0.0 0.0 0.00 0.00 0.00 94 1006.0
20260510062007 47 326 0.0 0.0 0.00 0.00 0.00 94 1006.0
20260510061605 48 326 0.0 0.0 0.00 0.00 0.00 94 1006.0
20260510061109 48 326 0.0 0.0 0.00 0.00 0.00 94 1005.9
20260510060503 48 326 0.0 0.0 0.00 0.00 0.00 94 1005.9
20260510060007 48 326 0.0 0.0 0.00 0.00 0.00 94 1005.9
20260510055507 48 326 0.0 0.0 0.00 0.00 0.00 94 1006.1
20260510055103 48 326 0.0 0.0 0.00 0.00 0.00 94 1006.1
20260510054504 48 326 0.0 0.0 0.00 0.00 0.00 94 1006.1
20260510054007 48 326 0.0 0.0 0.00 0.00 0.00 94 1006.2
20260510053600 48 326 0.0 0.0 0.00 0.00 0.00 94 1006.2
20260510053102 48 326 0.0 0.0 0.00 0.00 0.00 94 1006.2
20260510052504 48 326 0.0 0.0 0.00 0.00 0.00 94 1006.3
20260510052007 48 326 0.0 0.0 0.00 0.00 0.00 94 1006.3
20260510051600 49 326 0.0 0.0 0.00 0.00 0.00 94 1006.3
20260510051104 49 326 0.0 0.0 0.00 0.00 0.00 94 1006.3
20260510050504 49 326 0.0 0.0 0.00 0.00 0.00 94 1006.3
20260510050113 49 326 0.0 0.0 0.00 0.00 0.00 93 1006.3
20260510045554 49 326 0.0 0.0 0.00 0.00 0.00 94 1006.4
20260510045056 49 326 0.0 0.0 0.00 0.00 0.00 94 1006.4
20260510044501 49 326 0.0 0.0 0.00 0.00 0.00 93 1006.4
20260510044058 49 326 0.0 0.0 0.00 0.00 0.00 93 1006.4
20260510043557 49 326 0.0 0.0 0.00 0.00 0.00 93 1006.4
20260510043112 49 326 0.0 0.0 0.00 0.00 0.00 93 1006.4
20260510042601 49 326 0.0 0.0 0.00 0.00 0.00 93 1006.5
20260510042105 50 326 0.0 0.0 0.00 0.00 0.00 93 1006.5
20260510041507 50 326 0.0 0.0 0.00 0.00 0.00 93 1006.5
20260510041013 50 326 0.0 0.0 0.00 0.00 0.00 93 1006.6
20260510040604 50 326 0.0 0.0 0.00 0.00 0.00 93 1006.6
20260510040004 50 326 0.0 0.0 0.00 0.00 0.00 93 1006.6
20260510035506 50 326 0.0 0.0 0.00 0.00 0.00 92 1006.4
20260510035103 50 326 0.0 0.0 0.00 0.00 0.00 92 1006.4
20260510034604 50 326 0.0 0.0 0.00 0.00 0.00 92 1006.4
20260510034106 50 326 0.0 0.0 0.00 0.00 0.00 92 1006.4
20260510033501 51 326 0.0 0.0 0.00 0.00 0.00 92 1006.4
20260510033004 51 326 0.0 0.0 0.00 0.00 0.00 92 1006.4
20260510032508 51 326 0.0 0.0 0.00 0.00 0.00 92 1006.2
20260510032009 51 326 0.0 0.0 0.00 0.00 0.00 92 1006.2
20260510031513 51 326 0.0 0.0 0.00 0.00 0.00 92 1006.2
20260510031105 51 326 0.0 0.0 0.00 0.00 0.00 91 1006.1
20260510030554 51 326 0.0 0.0 0.00 0.00 0.00 91 1006.1
20260510030104 51 326 0.0 0.0 0.00 0.00 0.00 91 1006.1
20260510025502 51 326 0.0 0.0 0.00 0.00 0.00 91 1006.0
20260510025007 52 326 0.0 0.0 0.00 0.00 0.00 91 1006.0
20260510024509 52 326 0.0 0.0 0.00 0.00 0.00 90 1006.0
20260510024011 52 326 0.0 0.0 0.00 0.00 0.00 90 1006.0
20260510023603 52 326 0.0 0.0 0.00 0.00 0.00 90 1006.0
20260510023001 52 326 0.0 0.0 0.00 0.00 0.00 90 1006.0
20260510022504 52 326 0.0 0.0 0.00 0.00 0.00 90 1006.1
20260510022056 52 326 0.0 0.0 0.00 0.00 0.00 90 1006.1
20260510021600 52 326 0.0 0.0 0.00 0.00 0.00 89 1006.1
20260510021101 53 326 0.0 0.0 0.00 0.00 0.00 89 1006.0
20260510020607 53 326 0.0 0.0 0.00 0.00 0.00 89 1006.0
20260510020053 53 326 0.0 0.0 0.00 0.00 0.00 89 1006.0
20260510015554 53 326 0.0 0.0 0.00 0.00 0.00 89 1005.8
20260510015057 53 326 0.0 0.0 0.00 0.00 0.00 88 1005.8
20260510014605 53 326 0.0 0.0 0.00 0.00 0.00 88 1005.8
20260510014001 53 326 0.0 0.0 0.00 0.00 0.00 88 1005.7
20260510013504 54 326 0.0 0.0 0.00 0.00 0.00 88 1005.7
20260510013006 54 326 0.0 0.0 0.00 0.00 0.00 87 1005.7
20260510012558 54 326 0.0 0.0 0.00 0.00 0.00 87 1005.7
20260510012101 54 326 0.0 0.0 0.00 0.00 0.00 87 1005.7
20260510011604 54 326 0.0 0.0 0.00 0.00 0.00 87 1005.7
20260510011001 54 326 0.0 0.0 0.00 0.00 0.00 86 1005.4
20260510010504 55 326 0.0 0.0 0.00 0.00 0.00 86 1005.4
20260510010056 55 326 0.0 0.0 0.00 0.00 0.00 86 1005.4
20260510005604 55 326 0.0 0.0 0.00 0.00 0.00 85 1005.4
20260510005105 55 326 0.0 0.0 0.00 0.00 0.00 85 1005.4
20260510004554 55 326 0.0 0.0 0.00 0.00 0.00 85 1005.4
20260510004055 56 326 0.0 0.0 0.00 0.00 0.00 84 1005.3
20260510003601 56 326 0.0 0.0 0.00 0.00 0.00 84 1005.3
20260510003001 56 326 0.0 0.0 0.00 0.00 0.00 84 1005.3
20260510002505 56 326 0.0 0.0 0.00 0.00 0.00 84 1005.3
20260510002101 56 326 0.0 0.0 0.00 0.00 0.00 83 1005.3
20260510001502 57 326 0.0 0.0 0.00 0.00 0.00 83 1005.3
20260510001005 57 326 0.0 0.0 0.00 0.00 0.00 82 1005.3
20260510000515 57 326 0.0 0.0 0.00 0.00 0.00 81 1005.3
20260510000002 57 326 0.0 0.0 0.00 0.00 0.00 81 1005.3
20260509235504 57 326 0.0 0.0 0.00 0.00 0.00 81 1005.3
20260509235013 58 326 0.0 0.0 0.00 0.00 0.00 81 1005.3
20260509234602 58 326 0.0 0.0 0.00 0.00 0.00 81 1005.3
20260509234103 58 326 0.0 0.0 0.00 0.00 0.00 80 1005.3
20260509233606 58 326 0.0 0.0 0.00 0.00 0.00 80 1005.3
20260509233004 58 326 0.0 0.0 0.00 0.00 0.00 80 1005.3
20260509232507 58 326 0.0 0.0 0.00 0.00 0.00 80 1005.2
20260509232008 58 326 0.0 0.0 0.00 0.00 0.00 80 1005.2
20260509231605 58 326 0.0 0.0 0.00 0.00 0.00 81 1005.2
20260509231005 58 326 0.0 0.0 0.00 0.00 0.00 81 1005.1
20260509230515 58 326 0.0 0.0 0.00 0.00 0.00 80 1005.1
20260509230105 58 326 0.0 0.0 0.00 0.00 0.00 80 1005.1
20260509225502 58 326 0.0 0.0 0.00 0.00 0.00 81 1005.2
20260509225005 58 326 0.0 0.0 0.00 0.00 0.00 81 1005.2
20260509224602 58 326 0.0 0.0 0.00 0.00 0.00 81 1005.2
20260509224105 58 326 0.0 0.0 0.00 0.00 0.00 81 1005.3